{"data":{"norad_id":61908,"intl_designator":"2024-205Q","name":"2024-205Q","alt_names":[],"object_type":"PAYLOAD","status":"ACTIVE","operator":null,"country":"PRC","launch_date":"2024-11-11","launch_site_code":"JSC","launch_vehicle":null,"mission":null,"orbit_class":"UNKNOWN","rcs_meters":null,"size_class":null,"mass_kg":null,"dimensions":null,"purposes":[],"wikipedia_slug":null,"has_3d_model":false,"image_url":null,"decayed_at":null,"tle_current":{"epoch":"2026-05-25T04:28:13.091232Z","epoch_age_seconds":55353,"freshness":"FRESH","line1":"1 61908U 24205Q   26145.18626263  .00004938  00000+0  25233-3 0  9990","line2":"2 61908  97.4135 218.1760 0013512 133.6831 226.5524 15.17051030 84840","mean_motion":15.1705103,"eccentricity":0.0013512,"inclination_deg":97.4135,"raan_deg":218.176,"arg_perigee_deg":133.6831,"mean_anomaly_deg":226.5524,"bstar":0.00025233,"rev_number":8484,"period_min":94.920999460381,"perigee_km":505.44514405771,"apogee_km":524.07250573491,"semimajor_km":6892.8958248963,"source":"CELESTRAK","updated_at":"2026-05-25T13:38:02.629702Z"}}}